Regional Weather Roundup
Issued by NWS Kansas City/Pleasant Hill, MO

Home | Current Version | Previous Version | Graphics & Text | Print | Product List | Glossary Off
Versions: 1 2 3 4 5 6 7 8 9 10 11 12 13 14 15 16 17 18 19 20 21 22 23 24 25 26 27 28 29 30 31 32 33 34 35 36 37 38 39 40 41 42 43 44 45 46 47 48 49 50

000
ASUS43 KEAX 231011
RWREAX

WEATHER ROUNDUP FOR EASTERN KANSAS AND NORTHWEST MISSOURI
NATIONAL WEATHER SERVICE KANSAS CITY/PLEASANT HILL MO
500 AM CDT WED APR 23 2014

KSZ040-057-103>105-MOZ028-029-037-043-231100-
...KANSAS CITY METROPOLITAN AREA...

CITY           SKY/WX    TMP DP  RH WIND       PRES   REMARKS
K.C. INTL      CLOUDY    55  34  45 SE14      29.99S
K.C. DOWNTOWN  CLOUDY    57  34  41 E9        29.99S
LEES SUMMIT    CLOUDY    54  34  46 SE8       30.01R
OLATHE - IXD   MOCLDY    53  35  50 SE7       30.00R
OLATHE - OJC   CLOUDY    53  35  50 E6        29.99S
LAWRENCE       CLOUDY    54  40  59 SE9       29.98F

$$

MOZ001>008-011>017-020>025-030>033-038>040-044>046-053-054-231100-
...NORTHERN AND CENTRAL MISSOURI...

CITY           SKY/WX    TMP DP  RH WIND       PRES   REMARKS
ST. JOSEPH     CLOUDY    55  35  47 SE10      29.97F
MOSBY          CLOUDY    54  36  50 CALM      30.01S
WARRENSBURG    MOCLDY   N/A N/A N/A E5        30.01R
WHITEMAN AFB   CLOUDY    50  33  52 SE5       30.01R
CLINTON        CLOUDY    52  41  66 E5        30.02R
SEDALIA        PTCLDY    49  38  65 SE8       30.01F
WARSAW         NOT AVBL
MARSHALL         N/A     50  39  66 E5        30.02F
CHILLICOTHE      N/A     51  33  50 CALM      30.04R
MOBERLY        CLEAR     46  34  61 E7        30.05R
KIRKSVILLE     PTCLDY    44  31  60 E7        30.04S

$$

MOZ041-047>049-056>058-063>065-088>090-097-231100-
...EASTERN AND SOUTHERN MISSOURI...

CITY           SKY/WX    TMP DP  RH WIND       PRES   REMARKS
ST. LOUIS INTL PTCLDY    50  32  50 E7        30.06R
SPIRIT OF STL  CLEAR     40  36  86 CALM      30.05R
COLUMBIA       CLEAR     46  34  62 E6        30.03R
JEFFERSON CITY CLEAR     42  37  82 CALM      30.04R
MEXICO         CLEAR     43  34  70 E5        30.04R
HANNIBAL       CLEAR     48  27  43 E6        30.06R
ROLLA          CLEAR     46  32  58 E6        30.01R
LEBANON        CLEAR     48  32  53 SE5       30.03R
OSAGE BEACH    CLEAR     46  34  61 CALM      30.04R
SPRINGFIELD    CLEAR     50  34  54 SE10      30.00R
BRANSON        PTCLDY    50  36  57 SE8       30.02S
NEVADA         MOCLDY    50  39  66 E7        30.00R
JOPLIN         CLEAR     51  36  56 SE8       29.96F
WEST PLAINS    CLEAR     48  31  51 E3        30.04R
MALDEN         CLEAR     50  41  71 NW3       30.04R

$$

IAZ060-094-KSZ022-034>040-054-083-096-NEZ052-066-093-231100-
...KANSAS...SOUTHEAST NEBRASKA AND IOWA...

CITY           SKY/WX    TMP DP  RH WIND       PRES   REMARKS
TOPEKA         LGT RAIN  56  39  53 SE15      29.93F
MANHATTAN      LGT RAIN  61  36  39 SE10G17   29.91R
EMPORIA        MOCLDY    53  37  54 SE9       29.94R
CHANUTE        MOCLDY    54  37  52 NE6       29.97R
WICHITA        MOCLDY    57  35  43 SE14      29.87F
OMAHA          PTCLDY    53  34  48 SE13      29.93S
LINCOLN        MOCLDY    56  35  45 SE14      29.91S
FALLS CITY     MOCLDY    52  37  56 SE12      29.93F
LAMONI         CLOUDY    50  32  50 SE7       30.02R
DES MOINES     MOCLDY    52  32  46 E8        30.03S

$$




USA.gov is the U.S. government's official web portal to all federal, state and local government web resources and services.